Location: Kazanice
(53.5528°N, 19.7258°E)
Time: 07:19:43
(UTC+02:00)

ISS - Visible Passes

Search period start: 27 May 2018 00:00
Search period end: 06 June 2018 00:00
Orbit: 402 x 407 km, 51.6° (Epoch: 27 May)

Date Brightness Start Highest point End Pass type
(mag) Time Alt. Az. Time Alt. Az. Time Alt. Az.
27 May -3.3 00:23:13 10° W 00:26:16 36° SSW 00:26:26 36° SSW visible
27 May -3.8 21:54:38 10° WSW 21:57:52 61° S 22:01:06 10° E visible
27 May -3.6 23:31:00 10° W 23:34:10 47° SSW 23:35:44 25° SE visible
28 May -1.4 01:07:56 10° WSW 01:08:21 12° WSW 01:08:21 12° WSW visible
28 May -3.7 22:38:48 10° W 22:42:01 56° S 22:45:05 11° ESE visible
29 May -2.5 00:15:25 10° W 00:17:42 23° SW 00:17:42 23° SW visible
29 May -3.8 21:46:36 10° W 21:49:51 62° S 21:53:05 10° ESE visible
29 May -3.0 23:23:05 10° W 23:26:03 33° SSW 23:27:05 26° SSE visible
30 May -3.4 22:30:48 10° W 22:33:56 43° SSW 22:36:31 14° SE visible
31 May -1.7 00:07:56 10° WSW 00:09:09 14° SW 00:09:09 14° SW visible
31 May -2.3 23:15:16 10° W 23:17:50 21° SSW 23:18:35 19° S visible
01 Jun -2.7 22:22:50 10° W 22:25:44 29° SSW 22:28:03 14° SSE visible
02 Jun -1.6 23:07:55 10° WSW 23:09:26 13° SW 23:10:11 12° SSW visible
03 Jun -2.0 22:15:01 10° W 22:17:24 19° SSW 22:19:41 10° SSE visible
05 Jun -1.3 22:07:59 10° WSW 22:08:54 11° SW 22:09:50 10° SSW visible
